This is the latest recevied weather packets stored in our database for station/object DK0KTL-4. If no packets are shown the sender has not sent any weather packets the latest 10 day(s).
| Time | Temp. | Humidity | Pressure | Rain* | Wind** | Luminosity | Snow |
|---|---|---|---|---|---|---|---|
| 1787746084 | 20° C | 87% | 1017.9 hPa | 0 mm | - | - | - |
| 1787745785 | 19.44° C | 88% | 1018 hPa | 0 mm | - | - | - |
| 1787745183 | 18.89° C | 87% | 1018 hPa | 0 mm | - | - | - |
| 1787744883 | 18.89° C | 89% | 1018 hPa | 0 mm | - | - | - |
| 1787744582 | 18.89° C | 86% | 1018 hPa | 0 mm | - | - | - |
| 1787743982 | 18.89° C | 87% | 1017.9 hPa | 0 mm | - | - | - |
| 1787743682 | 18.33° C | 90% | 1018 hPa | 0 mm | - | - | - |
| 1787743381 | 18.33° C | 91% | 1018 hPa | 0 mm | - | - | - |
| 1787743081 | 18.33° C | 90% | 1018.1 hPa | 0 mm | - | - | - |
| 1787742781 | 18.33° C | 91% | 1018 hPa | 0 mm | - | - | - |
| 1787742180 | 17.78° C | 91% | 1018 hPa | 0 mm | - | - | - |
| 1787741579 | 17.78° C | 90% | 1018 hPa | 0 mm | - | - | - |
| 1787741279 | 17.78° C | 90% | 1018.1 hPa | 0 mm | - | - | - |
| 1787740979 | 17.78° C | 90% | 1018 hPa | 0 mm | - | - | - |
| 1787740679 | 17.78° C | 91% | 1018 hPa | 0 mm | - | - | - |
| 1787740378 | 17.78° C | 92% | 1018.1 hPa | 0 mm | - | - | - |
| 1787740078 | 17.78° C | 92% | 1018 hPa | 0 mm | - | - | - |
| 1787739778 | 17.78° C | 91% | 1017.9 hPa | 0 mm | - | - | - |
| 1787739477 | 17.78° C | 92% | 1018 hPa | 0 mm | - | - | - |
| 1787739177 | 17.78° C | 93% | 1017.9 hPa | 0 mm | - | - | - |
| 1787738877 | 17.78° C | 93% | 1017.9 hPa | 0 mm | - | - | - |
| 1787738577 | 17.22° C | 93% | 1018 hPa | 0 mm | - | - | - |
| 1787738276 | 17.78° C | 94% | 1018 hPa | 0 mm | - | - | - |
| 1787737977 | 17.78° C | 95% | 1017.9 hPa | 0 mm | - | - | - |
| 1787737676 | 17.22° C | 96% | 1017.8 hPa | 0 mm | - | - | - |
* Rain latest hour (hover to see other rain measurements)
** Current wind speed in m/s (hover to see current wind gust speed)